K9NRG Weather Reports


time (UTC)temp
C
wind
direction
speed
KPH
gust
KPH
rain 1hr
cm
rain 24hr
cm
rain mn
cm
humidity
%
barometer
mb
20260508085004 3 184 0.0 0.0 0.00 0.00 0.00 50 1006.2
20260508084004 3 184 0.0 3.2 0.00 0.00 0.00 45 1006.3
20260508082004 5 184 0.0 0.0 0.00 0.00 0.00 45 1005.6
20260508081003 6 183 0.0 0.0 0.00 0.00 0.00 44 1005.6
20260508075004 5 184 0.0 1.6 0.00 0.00 0.00 44 1006.0
20260508073004 6 184 0.0 0.0 0.00 0.00 0.00 41 1006.0
20260508072004 6 184 0.0 0.0 0.00 0.00 0.00 41 1005.7
20260508071004 6 184 0.0 0.0 0.00 0.00 0.00 41 1005.9
20260508070004 6 184 0.0 0.0 0.00 0.00 0.00 41 1005.5
20260508065004 6 184 0.0 0.0 0.00 0.00 0.00 41 1006.0
20260508063004 7 183 0.0 0.0 0.00 0.00 0.00 40 1005.4
20260508062003 7 184 0.0 0.0 0.00 0.00 0.00 39 1005.6
20260508061004 6 184 0.0 0.0 0.00 0.00 0.00 41 1005.8
20260508060004 7 184 0.0 0.0 0.00 0.00 0.00 38 1005.2
20260508055004 7 184 0.0 0.0 0.00 0.00 0.00 37 1006.7
20260508054004 7 183 0.0 0.0 0.00 0.00 0.00 37 1006.7
20260508050003 7 184 0.0 0.0 0.00 0.00 0.00 39 1006.6
20260508045004 7 184 0.0 0.0 0.00 0.00 0.00 34 1006.9
20260508044004 8 184 0.0 0.0 0.00 0.00 0.00 31 1006.2
20260508043004 8 184 0.0 0.0 0.00 0.00 0.00 31 1006.1
20260508042004 8 184 0.0 3.2 0.00 0.00 0.00 31 1006.1
20260508041004 9 184 0.0 0.0 0.00 0.00 0.00 28 1005.6
20260508040004 10 184 0.0 1.6 0.00 0.00 0.00 27 1005.4
20260508035004 10 184 0.0 0.0 0.00 0.00 0.00 25 1006.8
20260508034004 11 184 0.0 0.0 0.00 0.00 0.00 23 1006.7
20260508033004 11 183 0.0 0.0 0.00 0.00 0.00 25 1006.5
20260508032004 12 184 0.0 0.0 0.00 0.00 0.00 23 1005.8
20260508030004 12 182 1.6 9.7 0.00 0.00 0.00 20 1005.0
20260508024004 12 196 0.0 8.0 0.00 0.00 0.00 22 1005.9
20260508020004 14 270 0.0 0.0 0.00 0.00 0.00 21 1005.1
20260508015004 15 270 0.0 1.6 0.00 0.00 0.00 20 1006.5
20260508014003 15 347 0.0 8.0 0.00 0.00 0.00 19 1005.9
20260508013004 15 123 0.0 1.6 0.00 0.00 0.00 19 1005.8
20260508012003 16 109 0.0 0.0 0.00 0.00 0.00 17 1005.8
20260508011004 16 110 0.0 0.0 0.00 0.00 0.00 17 1005.2
20260508005003 17 336 0.0 8.0 0.00 0.00 0.00 16 1007.3
20260508004004 17 356 0.0 3.2 0.00 0.00 0.00 16 1007.3
20260508002004 17 145 0.0 3.2 0.00 0.00 0.00 14 1006.8
20260507235004 17 340 1.6 9.7 0.00 0.00 0.00 14 1007.4
20260507233002 18 178 1.6 11.3 0.00 0.00 0.00 13 1007.4
20260507232002 18 210 4.8 11.3 0.00 0.00 0.00 13 1007.4
20260507231003 18 127 1.6 4.8 0.00 0.00 0.00 14 1007.5
20260507225002 18 8 1.6 8.0 0.00 0.00 0.00 15 1006.6
20260507224002 18 327 1.6 11.3 0.00 0.00 0.00 15 1006.7
20260507223002 18 314 0.0 8.0 0.00 0.00 0.00 14 1006.7
20260507221002 18 162 0.0 9.7 0.00 0.00 0.00 14 1007.0
20260507215002 18 11 3.2 11.3 0.00 0.00 0.00 14 1007.7
20260507214002 18 150 3.2 12.9 0.00 0.00 0.00 14 1007.9
20260507213002 18 148 1.6 11.3 0.00 0.00 0.00 14 1008.2
20260507211002 18 166 3.2 19.3 0.00 0.00 0.00 15 1008.5
20260507210002 19 261 0.0 11.3 0.00 0.00 0.00 16 1008.1
20260507204002 19 225 1.6 8.0 0.00 0.00 0.00 16 1008.9
20260507202003 17 75 0.0 8.0 0.00 0.00 0.00 18 1009.9
20260507200002 17 68 3.2 9.7 0.00 0.00 0.00 16 1010.1
20260507195002 17 171 0.0 4.8 0.00 0.00 0.00 16 1009.7
20260507194002 17 176 0.0 4.8 0.00 0.00 0.00 17 1010.0
20260507193002 17 172 1.6 8.0 0.00 0.00 0.00 17 1010.1
20260507192003 17 7 0.0 3.2 0.00 0.00 0.00 15 1010.3
20260507191002 17 0 1.6 8.0 0.00 0.00 0.00 21 1010.2
20260507190004 16 141 1.6 4.8 0.00 0.00 0.00 18 1011.0
20260507185002 16 61 1.6 4.8 0.00 0.00 0.00 20 1010.7
20260507184002 15 72 0.0 4.8 0.00 0.00 0.00 24 1011.3
20260507183002 15 68 0.0 8.0 0.00 0.00 0.00 21 1011.4
20260507182002 15 1 1.6 4.8 0.00 0.03 0.00 23 1011.5
20260507181002 14 82 1.6 9.7 0.00 0.03 0.00 23 1012.4
20260507174001 13 34 0.0 3.2 0.00 0.03 0.00 24 1012.6
20260507173002 14 66 1.6 9.7 0.00 0.03 0.00 22 1012.2
20260507172002 15 40 0.0 3.2 0.00 0.03 0.00 23 1012.3
20260507171002 13 6 0.0 8.0 0.00 0.03 0.00 25 1013.2
20260507170002 13 10 1.6 9.7 0.00 0.03 0.00 24 1013.3
20260507165002 13 34 0.0 1.6 0.00 0.03 0.00 26 1012.9
20260507164002 12 27 1.6 4.8 0.00 0.03 0.00 28 1014.0
20260507163002 11 55 0.0 4.8 0.00 0.03 0.00 24 1014.4
20260507162002 10 76 0.0 8.0 0.00 0.03 0.00 26 1014.9
20260507160002 9 80 1.6 9.7 0.00 0.03 0.00 31 1015.6
20260507152002 8 69 1.6 9.7 0.00 0.03 0.00 35 1016.2
20260507151002 7 71 4.8 9.7 0.00 0.03 0.00 33 1016.3
20260507150002 7 47 1.6 4.8 0.00 0.03 0.00 34 1016.9
20260507144002 5 68 3.2 4.8 0.00 0.03 0.00 37 1016.8
20260507143002 5 68 0.0 3.2 0.00 0.03 0.00 39 1017.2
20260507142002 5 68 0.0 4.8 0.00 0.03 0.00 41 1017.3
20260507141002 4 68 0.0 4.8 0.00 0.03 0.00 41 1017.9
20260507140002 3 69 3.2 4.8 0.00 0.03 0.00 47 1018.4
20260507135002 2 128 0.0 3.2 0.00 0.03 0.00 47 1017.4
20260507134002 2 147 0.0 1.6 0.00 0.03 0.00 49 1017.9
20260507133002 1 147 0.0 0.0 0.00 0.03 0.00 54 1018.5
20260507131003 0 148 0.0 1.6 0.00 0.03 0.00 56 1018.3
20260507130003 0 147 0.0 0.0 0.00 0.03 0.00 60 1019.0
20260507124003 -2 148 0.0 0.0 0.00 0.03 0.00 62 1018.5
20260507123002 -2 148 0.0 0.0 0.00 0.03 0.00 61 1018.6
20260507121002 -2 147 0.0 0.0 0.00 0.03 0.00 60 1018.5
20260507120002 -2 148 0.0 0.0 0.00 0.03 0.00 59 1018.5
20260507115002 -2 148 0.0 0.0 0.00 0.03 0.00 58 1017.7
20260507114002 -2 148 0.0 0.0 0.00 0.03 0.00 57 1017.6
20260507113002 -1 148 0.0 0.0 0.00 0.03 0.00 57 1017.5
20260507111002 -1 148 0.0 0.0 0.00 0.03 0.00 56 1017.2
20260507110003 -1 148 0.0 4.8 0.00 0.03 0.00 56 1016.8
20260507105003 -1 147 0.0 0.0 0.00 0.03 0.00 58 1017.9
20260507104003 -1 148 0.0 0.0 0.00 0.03 0.00 57 1017.9
20260507103003 -1 148 0.0 0.0 0.00 0.03 0.00 56 1017.9
20260507102002 0 148 0.0 0.0 0.00 0.03 0.00 53 1017.2
20260507101002 0 148 0.0 3.2 0.00 0.03 0.00 53 1017.2
20260507100002 -1 148 1.6 4.8 0.00 0.03 0.00 55 1017.1
20260507094002 -2 337 0.0 0.0 0.00 0.03 0.00 57 1018.0
20260507093002 -2 337 0.0 0.0 0.00 0.03 0.00 57 1018.1
20260507092003 -2 337 0.0 0.0 0.00 0.03 0.00 56 1017.8
20260507091002 -1 337 0.0 0.0 0.00 0.03 0.00 56 1017.4
20260507090002 -1 337 0.0 0.0 0.00 0.03 0.00 56 1017.6